Location: Avully
(45.9633°N, 6.0228°E)
Time: 19:56:34
(UTC+00:00)

IRAS Rocket - Pass Details

Date: 23 May 2024
Orbit: 846 x 877 km, 100.1° (Epoch: 14 June)

Event Time Altitude Azimuth Distance (km) Brightness Sun altitude
Rises 02:15:45 0° 18° (NNE) 3,435 8.8 -13.8°
Reaches altitude 10° 02:18:09 10° 20° (NNE) 2,491 7.9 -13.6°
Maximum altitude 02:23:39 70° 105° (ESE) 901 4.4 -13.0°
Enters shadow 02:28:54 11° 189° (S) 2,387 6.1 -12.4°
